Jackson, MI

6:46 PM EST on December 15, 2019 (GMT -0500)
Jackson County-Reynolds

Weather History for KJXN - June, 2019

Change the Weather History Date:

Sunday, June 9, 2019

  Actual Average Record
Temperature  
Mean Temperature 68 °F 66 °F  
Max Temperature 70 °F 77 °F 92 °F (1968)
Min Temperature 65 °F 54 °F 36 °F (1988)
Degree Days  
Heating Degree Days 0 2  
Month to date heating degree days 21 29  
Since 1 June heating degree days 21 29  
Since 1 July heating degree days 6657 6631  
Cooling Degree Days 3 3  
Month to date cooling degree days 17 23  
Year to date cooling degree days 27 60  
Since 1 June cooling degree days 17 23  
Growing Degree Days 16 (Base 50)    
Moisture  
Dew Point 63 °F    
Average Humidity 78    
Maximum Humidity 100    
Minimum Humidity 55    
Precipitation  
Precipitation 0.50 in 0.11 in 0.57 in (1966)
Month to date precipitation 2.21 0.95  
Year to date precipitation 14.22 11.55  
Sea Level Pressure  
Sea Level Pressure 30.01 in    
Wind  
Wind Speed 7 mph (East)    
Max Wind Speed 14 mph    
Max Gust Speed 21 mph    
Visibility 6 miles    
Events Rain    
T = Trace of Precipitation, MM = Missing Value Source: NWS Daily Summary

Daily Weather History Graph

Daily Weather History Graph

Search for Another Location

Airport or City:

Astronomy

Jun. 09, 2019 Rise Set
Actual Time 6:01 AM EDT 9:13 PM EDT
Civil Twilight 5:26 AM EDT 9:47 PM EDT
Nautical Twilight 4:42 AM EDT 10:31 PM EDT
Astronomical Twilight 3:49 AM EDT 11:25 PM EDT
Moon 12:43 PM EDT (6/9) 1:49 AM EDT (6/9)
Length of Visible Light 16h 20m
Length of Day
15h 11m
Waxing Crescent, 43% of the Moon is Illuminated
Jun 9
Waxing Crescent
Jun 10
First Quarter
Jun 17
Full
Jun 25
Last Quarter
Jul 2
New

Hourly Weather History & Observations

Time (EDT) Temp. Dew Point Humidity Pressure Visibility Wind Dir Wind Speed Gust Speed Precip Events Conditions
12:56 AM 68.0 °F 51.1 °F 55% 30.02 in 10.0 mi ENE 8.1 mph 16.1 mph N/A   Clear
1:56 AM 68.0 °F 51.1 °F 55% 30.01 in 10.0 mi ENE 9.2 mph - N/A   Clear
2:56 AM 66.9 °F 52.0 °F 59% 30.01 in 10.0 mi ENE 10.4 mph - N/A   Clear
3:56 AM 66.9 °F 53.1 °F 61% 30.00 in 10.0 mi ENE 6.9 mph - N/A   Clear
4:56 AM 64.9 °F 55.0 °F 70% 30.00 in 10.0 mi ENE 6.9 mph - 0.00 in   Overcast
5:56 AM 66.0 °F 55.0 °F 68% 30.01 in 10.0 mi ENE 8.1 mph - N/A   Overcast
6:56 AM 66.0 °F 57.0 °F 73% 30.01 in 10.0 mi ENE 6.9 mph - N/A   Partly Cloudy
7:56 AM 68.0 °F 57.9 °F 70% 30.02 in 10.0 mi East 9.2 mph - N/A   Overcast
8:56 AM 69.1 °F 59.0 °F 70% 30.04 in 10.0 mi ESE 8.1 mph - N/A   Overcast
9:56 AM 66.0 °F 62.1 °F 87% 30.04 in 8.0 mi East 10.4 mph - 0.01 in Rain Light Rain
10:16 AM 66.0 °F 63.0 °F 90% 30.05 in 10.0 mi East 8.1 mph - 0.00 in   Overcast
10:56 AM 66.9 °F 64.0 °F 90% 30.04 in 6.0 mi East 8.1 mph - 0.00 in Rain Light Rain
11:05 AM 66.9 °F 64.0 °F 90% 30.05 in 8.0 mi East 6.9 mph - 0.00 in Rain Light Rain
11:56 AM 66.9 °F 63.0 °F 87% 30.04 in 7.0 mi East 8.1 mph - 0.02 in Rain Light Rain
12:56 PM 68.0 °F 64.9 °F 90% 30.04 in 3.0 mi East 8.1 mph - 0.03 in Rain Light Rain
1:09 PM 66.9 °F 64.9 °F 93% 30.05 in 1.8 mi East 6.9 mph - 0.05 in Rain Rain
1:19 PM 66.9 °F 64.9 °F 93% 30.04 in 2.5 mi East 6.9 mph - 0.08 in Rain Rain
1:35 PM 66.0 °F 64.9 °F 96% 30.04 in 1.2 mi East 5.8 mph - 0.14 in Rain Rain
1:44 PM 66.9 °F 66.0 °F 97% 30.04 in 3.0 mi East 5.8 mph - 0.15 in Rain Light Rain
2:18 PM 68.0 °F 66.0 °F 93% 30.03 in 7.0 mi East 9.2 mph - 0.00 in Rain Light Rain
2:54 PM 69.8 °F 68.0 °F 94% 30.02 in 7.0 mi ENE 8.1 mph - 0.01 in Rain Light Rain
2:56 PM 69.1 °F 68.0 °F 96% 30.01 in 7.0 mi ENE 8.1 mph - 0.01 in Rain Light Rain
3:56 PM 69.1 °F 66.0 °F 90% 30.00 in 8.0 mi ENE 5.8 mph - 0.00 in   Overcast
4:56 PM 68.0 °F 66.0 °F 93% 29.99 in 5.0 mi ENE 6.9 mph - 0.03 in Rain Light Rain
5:56 PM 68.0 °F 68.0 °F 100% 29.99 in 4.0 mi ENE 4.6 mph - 0.06 in Rain Light Rain
6:41 PM 66.9 °F 66.9 °F 100% 29.99 in 2.5 mi ENE 3.5 mph - 0.05 in Rain Light Rain
6:53 PM 66.2 °F 66.2 °F 100% 29.99 in 3.0 mi ENE 4.6 mph - 0.06 in Rain Light Rain
6:56 PM 66.9 °F 66.9 °F 100% 29.98 in 3.0 mi ENE 4.6 mph - 0.07 in Rain Light Rain
7:32 PM 66.9 °F 66.9 °F 100% 29.99 in 2.5 mi ENE 4.6 mph - 0.03 in Rain Light Rain
7:51 PM 68.0 °F 68.0 °F 100% 29.99 in 3.0 mi East 5.8 mph - 0.05 in Rain Light Rain
7:56 PM 68.0 °F 68.0 °F 100% 29.98 in 3.0 mi East 6.9 mph - 0.06 in Rain Light Rain
8:40 PM 68.0 °F 68.0 °F 100% 29.98 in 4.0 mi East 6.9 mph - 0.03 in Rain Light Rain
8:56 PM 68.0 °F 68.0 °F 100% 29.96 in 5.0 mi East 9.2 mph - 0.03 in Rain Light Rain
9:17 PM 68.0 °F 68.0 °F 100% 29.97 in 7.0 mi East 9.2 mph - 0.01 in   Overcast
9:56 PM 66.9 °F 66.9 °F 100% 29.95 in 8.0 mi East 5.8 mph - 0.01 in   Mostly Cloudy
10:56 PM 66.9 °F 66.9 °F 100% 29.95 in 9.0 mi East 4.6 mph - 0.01 in   Overcast
11:56 PM 66.9 °F 66.9 °F 100% 29.93 in 8.0 mi East 5.8 mph - N/A   Overcast